Location: Zagreb
(45.8000°N, 16.0000°E)
Time: 00:49:28
(UTC+01:00)

Transit 4A - All Passes

Search period start: 26 January 2020 00:00
Search period end: 05 February 2020 00:00
Orbit: 872 x 973 km, 66.8° (Epoch: 25 January)

Date Brightness Start Highest point End Pass type
(mag) Time Alt. Az. Time Alt. Az. Time Alt. Az.
26 Jan - 05:30:07 10° S 05:35:33 36° ESE 05:40:54 10° NE visible
26 Jan - 07:16:04 10° WSW 07:21:48 45° NW 07:27:27 10° NNE daylight
26 Jan - 09:06:41 10° WNW 09:09:43 14° NNW 09:12:44 10° N daylight
26 Jan - 12:44:20 10° N 12:48:06 17° NNE 12:51:51 10° ENE daylight
26 Jan - 14:29:51 10° NNW 14:35:39 63° NE 14:41:27 10° SE daylight
26 Jan - 16:16:59 10° WNW 16:21:31 24° WSW 16:26:05 10° SSW daylight
27 Jan - 05:38:55 10° S 05:44:45 53° ESE 05:50:28 10° NE visible
27 Jan - 07:25:57 10° WSW 07:31:20 34° NW 07:36:38 10° NNE daylight
27 Jan - 09:17:35 10° NW 09:19:37 12° NNW 09:21:39 10° N daylight
27 Jan - 12:53:25 10° NNW 12:57:51 22° NE 13:02:16 10° E daylight
27 Jan - 14:39:10 10° NNW 14:45:02 88° ENE 14:50:54 10° SSE daylight
27 Jan - 16:27:12 10° WNW 16:30:33 16° WSW 16:33:56 10° SW daylight
28 Jan - 04:06:16 10° SE 04:08:38 12° ESE 04:10:58 10° ENE visible
28 Jan - 05:47:59 10° SSW 05:54:00 76° ESE 05:59:54 10° NE visible
28 Jan - 07:36:02 10° W 07:40:56 26° NW 07:45:48 10° NNE daylight
28 Jan - 09:29:20 10° NNW 09:29:34 10° NNW 09:29:48 10° N daylight
28 Jan - 11:17:56 10° N 11:19:01 10° NNE 11:20:04 10° NNE daylight
28 Jan - 13:02:33 10° NNW 13:07:31 28° NE 13:12:29 10° E daylight
28 Jan - 14:48:33 10° NW 14:54:19 66° WSW 15:00:07 10° SSE daylight
29 Jan - 04:13:32 10° SSE 04:17:38 19° ESE 04:21:40 10° ENE visible
29 Jan - 05:57:19 10° SW 06:03:19 78° WNW 06:09:15 10° NNE visible
29 Jan - 07:46:20 10° W 07:50:39 20° NW 07:54:53 10° NNE daylight
29 Jan - 11:26:35 10° N 11:28:56 12° NNE 11:31:17 10° NE daylight
29 Jan - 13:11:42 10° NNW 13:17:05 37° NE 13:22:29 10° ESE daylight
29 Jan - 14:58:02 10° NW 15:03:32 45° WSW 15:09:05 10° S daylight
30 Jan - 04:21:41 10° SSE 04:26:42 28° ESE 04:31:39 10° NE visible
30 Jan - 06:06:51 10° SW 06:12:44 56° NW 06:18:31 10° NNE visible
30 Jan - 07:56:51 10° WNW 08:00:25 16° NNW 08:03:57 10° N daylight
30 Jan - 11:35:33 10° N 11:38:48 15° NNE 11:42:04 10° ENE daylight
30 Jan - 13:20:55 10° NNW 13:26:36 51° NE 13:32:17 10° SE daylight
30 Jan - 15:07:41 10° NW 15:12:42 31° WSW 15:17:44 10° S daylight
31 Jan - 04:30:16 10° S 04:35:50 41° ESE 04:41:20 10° NE visible
31 Jan - 06:16:36 10° WSW 06:22:13 40° NW 06:27:45 10° NNE visible
31 Jan - 08:07:35 10° NW 08:10:16 13° NNW 08:12:56 10° N daylight
31 Jan - 11:44:35 10° NNW 11:48:36 19° NNE 11:52:37 10° ENE daylight
31 Jan - 13:30:11 10° NNW 13:36:01 71° NE 13:41:52 10° SE daylight
31 Jan - 15:17:34 10° WNW 15:21:46 21° WSW 15:25:59 10° SSW daylight
01 Feb - 04:39:10 10° SSW 04:45:03 60° ESE 04:50:51 10° NE visible
01 Feb - 06:26:34 10° WSW 06:31:46 30° NW 06:36:55 10° NNE visible
01 Feb - 08:18:37 10° NNW 08:20:11 11° NNW 08:21:45 10° N daylight
01 Feb - 11:53:41 10° NNW 11:58:19 24° NE 12:02:58 10° E daylight
01 Feb - 13:39:30 10° NW 13:45:22 82° WSW 13:51:15 10° SSE daylight
01 Feb - 15:28:04 10° WNW 15:30:47 13° WSW 15:33:30 10° SW daylight
02 Feb - 03:05:44 10° SE 03:08:51 15° ESE 03:11:57 10° ENE visible
02 Feb - 04:48:19 10° SSW 04:54:20 85° ESE 05:00:15 10° NE visible
02 Feb - 06:36:44 10° W 06:41:25 23° NW 06:46:03 10° NNE visible
02 Feb - 10:17:58 10° N 10:19:35 11° NNE 10:21:11 10° NNE daylight
02 Feb - 12:02:49 10° NNW 12:07:58 31° NE 12:13:07 10° ESE daylight
02 Feb - 13:48:56 10° NW 13:54:38 57° WSW 14:00:22 10° SSE daylight
03 Feb - 03:13:25 10° SSE 03:17:53 22° ESE 03:22:17 10° ENE visible
03 Feb - 04:57:43 10° SW 05:03:42 69° NW 05:09:34 10° NNE visible
03 Feb - 06:47:06 10° WNW 06:51:08 18° NNW 06:55:08 10° N visible
03 Feb - 10:26:47 10° N 10:29:29 13° NNE 10:32:11 10° NE daylight
03 Feb - 12:12:00 10° NNW 12:17:31 41° NE 12:23:02 10° ESE daylight
03 Feb - 13:58:28 10° NW 14:03:50 39° WSW 14:09:14 10° S daylight
04 Feb - 03:21:44 10° S 03:26:59 32° ESE 03:32:09 10° NE visible
04 Feb - 05:07:20 10° SW 05:13:07 49° NW 05:18:50 10° NNE visible
04 Feb - 06:57:41 10° WNW 07:00:56 15° NNW 07:04:11 10° N daylight
04 Feb - 10:35:47 10° N 10:39:20 16° NNE 10:42:53 10° ENE daylight
04 Feb - 12:21:14 10° NNW 12:26:59 57° NE 12:32:46 10° SE daylight
04 Feb - 14:08:12 10° NW 14:12:57 27° WSW 14:17:46 10° SSW daylight
